Location: Slave Lake
(55.2830°N, 114.7830°W)
Time: 11:59:33
(UTC-07:00)

Amateur Radio Satellites - All Passes

Search period start: 21 November 2014 11:29
Search period end: 22 November 2014 11:29
Location: Slave Lake, 55.2830°N, 114.7830°W

Satellite Date Start Highest point End Downlink Frequencies (MHz)
Time Altitude Azimuth
NANOSAT C BR1 21 Nov 11:36:30 11:40:00 24° 268° (W) 11:43:31 145.865
COMPASS 1 21 Nov 11:38:25 11:41:33 21° 303° (WNW) 11:44:42 437.405
HUMSAT D 21 Nov 11:38:46 11:42:56 88° 106° (ESE) 11:47:06 437.325/437.525
O/OREOS (USA 219) 21 Nov 11:42:32 11:43:24 11° 347° (NNW) 11:44:16 437.305
QB50P1 21 Nov 11:46:03 11:49:17 21° 269° (W) 11:52:31 145.935-145.965
CINEMA 3 21 Nov 11:46:21 11:50:03 31° 297° (WNW) 11:53:45 145.822/145.860
SO-50 21 Nov 11:50:10 11:54:44 42° 26° (NNE) 11:59:22 436.795
FUNcube-1 21 Nov 11:53:03 11:57:05 48° 292° (WNW) 12:01:08 145.935
CUBEBUG 1 21 Nov 11:54:38 11:58:59 53° 101° (E) 12:03:16 437.445
CUBEBUG 2 21 Nov 11:55:01 11:58:52 37° 295° (WNW) 12:02:45 437.445
CUTE 1.7 & AOD 2 21 Nov 11:56:08 11:58:12 13° 309° (NW) 12:00:16 437.475
DELFI C3 21 Nov 11:57:54 12:01:22 26° 299° (WNW) 12:04:50 145.870
UKube-1 21 Nov 11:58:51 12:02:37 29° 300° (WNW) 12:06:21 .
Oscar 19 21 Nov 11:59:12 12:03:45 33° 59° (ENE) 12:08:19 437.125/150
50 SAT 21 Nov 12:02:15 12:06:17 65° 289° (WNW) 12:10:18 437.505
SPROUT 21 Nov 12:04:10 12:07:25 21° 90° (E) 12:10:39 437.525
UWE-3 21 Nov 12:06:14 12:10:00 34° 296° (WNW) 12:13:48 435.000/436.395/437.385
DOVE 4 21 Nov 12:10:17 12:12:49 16° 306° (NW) 12:15:20 437.250
TISAT 1 21 Nov 12:10:26 12:13:58 25° 93° (E) 12:17:27 437.305
POPSAT HIP 1 21 Nov 12:11:40 12:13:42 13° 274° (W) 12:15:43 437.405
Oscar 11 21 Nov 12:14:37 12:17:47 20° 304° (WNW) 12:20:58 145.826/435.025
ESTCUBE 1 21 Nov 12:15:36 12:20:13 83° 105° (ESE) 12:24:46 437.505/2401.250
BUGSAT 1 21 Nov 12:26:17 12:27:38 11° 276° (W) 12:28:59 437.445
DX 1 21 Nov 12:29:45 12:32:43 18° 307° (NW) 12:35:40 434.975-435.025
SHINDAISAT 21 Nov 12:29:53 12:31:36 26° 129° (SE) 12:33:20 437.305
VELOX 1 21 Nov 12:36:00 12:40:02 34° 298° (WNW) 12:44:01 145.980
ITAMSAT 1 21 Nov 12:40:40 12:45:18 34° 59° (ENE) 12:49:58 435.822/435.867
AUBIESAT-1 21 Nov 12:40:44 12:42:56 13° 90° (E) 12:45:08 437.475
M-CUBED/EXP-1 PRIME 21 Nov 12:41:57 12:44:34 14° 91° (E) 12:47:11 437.505
Gurwin Techsat 1B 21 Nov 12:43:26 12:47:38 24° 54° (NE) 12:51:51 435.225
AO-7 21 Nov 12:50:31 12:56:41 24° 32° (NNE) 13:02:52 29.400- 29.500
ZACube-1 21 Nov 12:53:41 12:56:27 17° 305° (NW) 12:59:13 437.345
BEESAT 21 Nov 12:55:51 12:58:38 15° 86° (E) 13:01:24 436.000
AISAT 21 Nov 12:59:21 13:02:52 24° 303° (WNW) 13:06:23 437.250
GONETS M04 21 Nov 13:04:21 13:09:49 17° 325° (NW) 13:15:19
HO-68 21 Nov 13:13:52 13:18:13 18° 328° (NNW) 13:22:35 435.675
HUMSAT D 21 Nov 13:15:39 13:18:14 16° 305° (NW) 13:20:50 437.325/437.525
YUBILEINY 21 Nov 13:15:53 13:24:08 43° 62° (ENE) 13:32:18 435.215
O/OREOS (USA 219) 21 Nov 13:23:54 13:24:59 11° 14° (NNE) 13:26:03 437.305
HORYU 2 21 Nov 13:28:13 13:31:40 23° 56° (ENE) 13:35:08 437.375
SO-50 21 Nov 13:30:47 13:35:35 66° 228° (SW) 13:40:26 436.795
CUBEBUG 1 21 Nov 13:31:28 13:35:08 26° 301° (WNW) 13:38:47 437.445
Oscar 19 21 Nov 13:37:58 13:42:57 52° 260° (W) 13:47:58 437.125/150
50 SAT 21 Nov 13:39:16 13:40:54 12° 309° (NW) 13:42:31 437.505
SPROUT 21 Nov 13:39:40 13:43:56 62° 290° (WNW) 13:48:09 437.525
TISAT 1 21 Nov 13:45:58 13:50:04 49° 293° (WNW) 13:54:08 437.305
ITUPSAT 1 21 Nov 13:47:17 13:51:46 37° 96° (E) 13:56:13 437.325
ESTCUBE 1 21 Nov 13:53:19 13:56:35 20° 306° (NW) 13:59:51 437.505/2401.250
SWISSCUBE 21 Nov 14:00:12 14:04:55 50° 100° (E) 14:09:34 437.505
SHINDAISAT 21 Nov 14:01:03 14:02:37 20° 329° (NNW) 14:04:12 437.305
JAS-2 21 Nov 14:03:22 14:08:14 18° 36° (NE) 14:13:06 435.910
CUSAT 1 21 Nov 14:11:37 14:14:15 48° 100° (E) 14:16:48 437.405
AUBIESAT-1 21 Nov 14:13:56 14:18:47 65° 109° (ESE) 14:23:40 437.475
DANDE 21 Nov 14:15:09 14:17:51 43° 100° (E) 14:20:22 436.750
STARS 21 Nov 14:15:12 14:17:19 13° 85° (E) 14:19:25 437.465
M-CUBED/EXP-1 PRIME 21 Nov 14:15:31 14:20:23 71° 110° (ESE) 14:25:20 437.505
ITAMSAT 1 21 Nov 14:19:32 14:24:39 53° 259° (W) 14:29:47 435.822/435.867
Gurwin Techsat 1B 21 Nov 14:21:47 14:27:07 80° 254° (WSW) 14:32:29 435.225
BEESAT 21 Nov 14:32:25 14:37:16 83° 106° (ESE) 14:42:05 436.000
AO-7 21 Nov 14:39:56 14:47:59 58° 57° (ENE) 14:56:05 29.400- 29.500
KKS-1 21 Nov 14:43:55 14:47:53 31° 95° (E) 14:51:49 437.445
O/OREOS (USA 219) 21 Nov 15:02:21 15:06:03 24° 39° (NE) 15:09:43 437.305
HORYU 2 21 Nov 15:03:35 15:08:00 67° 257° (WSW) 15:12:27 437.375
GONETS M04 21 Nov 15:11:13 15:11:50 10° 360° (N) 15:12:28
SO-50 21 Nov 15:12:39 15:15:21 15° 248° (WSW) 15:18:04 436.795
YUBILEINY 21 Nov 15:12:53 15:21:29 64° 267° (W) 15:30:00 435.215
RS-15 21 Nov 15:13:23 15:16:01 11° 89° (E) 15:18:38 29.354- 29.394
SPROUT 21 Nov 15:17:23 15:19:14 13° 311° (NW) 15:21:06 437.525
TISAT 1 21 Nov 15:24:17 15:25:00 10° 313° (NW) 15:25:43 437.305
ITUPSAT 1 21 Nov 15:25:13 15:29:45 42° 297° (WNW) 15:34:16 437.325
CUTE-I 21 Nov 15:26:31 15:28:45 13° 41° (NE) 15:30:59 437.470
SWISSCUBE 21 Nov 15:38:23 15:42:39 32° 300° (WNW) 15:46:52 437.505
JAS-2 21 Nov 15:44:18 15:51:32 46° 58° (ENE) 15:58:55 435.910
AUBIESAT-1 21 Nov 15:49:22 15:53:29 29° 308° (NW) 15:57:41 437.475
STARS 21 Nov 15:50:08 15:54:33 81° 105° (ESE) 15:58:57 437.465
M-CUBED/EXP-1 PRIME 21 Nov 15:51:04 15:55:06 27° 309° (NW) 15:59:13 437.505
DANDE 21 Nov 16:01:31 16:01:39 10° 301° (WNW) 16:01:46 436.750
Gurwin Techsat 1B 21 Nov 16:04:41 16:07:58 16° 275° (W) 16:11:16 435.225
ITAMSAT 1 21 Nov 16:05:10 16:05:23 10° 280° (W) 16:05:36 435.822/435.867
BEESAT 21 Nov 16:11:02 16:14:37 21° 306° (NW) 16:18:11 436.000
KKS-1 21 Nov 16:20:28 16:24:41 43° 295° (WNW) 16:28:53 437.445
Cubesat XI-IV 21 Nov 16:20:44 16:25:04 26° 54° (NE) 16:29:25 437.490
AO-7 21 Nov 16:33:02 16:41:00 49° 260° (W) 16:49:04 29.400- 29.500
O/OREOS (USA 219) 21 Nov 16:41:29 16:45:59 79° 241° (WSW) 16:50:27 437.305
HORYU 2 21 Nov 16:44:28 16:45:35 11° 277° (W) 16:46:43 437.375
HO-68 21 Nov 16:45:13 16:47:55 13° 21° (NNE) 16:50:37 435.675
MOZHAYETS 4 21 Nov 16:49:31 16:53:12 23° 90° (E) 16:56:53
MaSat-1 21 Nov 16:53:07 16:55:37 25° 118° (ESE) 16:57:56 437.345
CUTE-I 21 Nov 17:02:33 17:07:38 45° 63° (ENE) 17:12:43 437.470
ITUPSAT 1 21 Nov 17:05:30 17:06:31 11° 318° (NW) 17:07:32 437.325
GONETS M04 21 Nov 17:08:26 17:13:52 17° 34° (NE) 17:19:17
YUBILEINY 21 Nov 17:11:11 17:16:31 18° 292° (WNW) 17:21:50 435.215
RS-15 21 Nov 17:14:59 17:25:02 45° 114° (ESE) 17:35:08 29.354- 29.394
STARS 21 Nov 17:27:28 17:30:34 19° 306° (NW) 17:33:40 437.465
JAS-2 21 Nov 17:28:49 17:36:22 61° 260° (W) 17:44:12 435.910
Cubesat XI-IV 21 Nov 17:59:20 18:04:43 77° 255° (WSW) 18:10:07 437.490
PRISM 21 Nov 18:12:08 18:15:47 27° 94° (E) 18:19:23 437.425
CUBESAT XI-V 21 Nov 18:17:27 18:20:18 16° 85° (E) 18:23:08 437.345
O/OREOS (USA 219) 21 Nov 18:22:26 18:24:38 14° 261° (W) 18:26:51 437.305
MOZHAYETS 4 21 Nov 18:26:14 18:30:52 64° 290° (WNW) 18:35:28
HO-68 21 Nov 18:27:34 18:33:27 29° 45° (NE) 18:39:20 435.675
MaSat-1 21 Nov 18:27:46 18:30:17 28° 315° (NW) 18:32:38 437.345
STRAND 1 21 Nov 18:28:18 18:31:56 19° 88° (E) 18:35:33 437.568
AO-7 21 Nov 18:32:56 18:36:07 12° 284° (WNW) 18:39:18 29.400- 29.500
SHINDAISAT 21 Nov 18:36:08 18:37:47 22° 33° (NNE) 18:39:24 437.305
CUTE-I 21 Nov 18:42:47 18:47:49 40° 263° (W) 18:52:52 437.470
SEEDS 21 Nov 18:49:36 18:51:23 13° 50° (NE) 18:53:11 437.485
GOMX 1 21 Nov 18:51:48 18:53:51 13° 50° (NE) 18:55:52 467.674
BRITE-PL 21 Nov 18:54:29 18:57:39 18° 54° (NE) 19:00:41 437.365/2234.400
GONETS M04 21 Nov 19:05:09 19:13:38 46° 63° (ENE) 19:22:01
CANX-2 21 Nov 19:09:10 19:12:15 20° 57° (ENE) 19:15:21 2200.000
AAUSAT CUBESAT 2 21 Nov 19:15:25 19:17:55 16° 54° (NE) 19:20:26 437.432
JAS-2 21 Nov 19:18:16 19:23:03 17° 283° (WNW) 19:27:56 435.910
RS-15 21 Nov 19:25:45 19:36:43 80° 322° (NW) 19:47:53 29.354- 29.394
COMPASS 1 21 Nov 19:26:34 19:29:40 20° 57° (ENE) 19:32:46 437.405
Cubesat XI-IV 21 Nov 19:42:31 19:45:44 16° 275° (W) 19:48:58 437.490
CINEMA 3 21 Nov 19:43:03 19:45:41 16° 54° (NE) 19:48:17 145.822/145.860
CUTE 1.7 & AOD 2 21 Nov 19:43:33 19:47:21 34° 64° (ENE) 19:51:11 437.475
DELFI C3 21 Nov 19:45:11 19:47:26 15° 53° (NE) 19:49:42 145.870
PRISM 21 Nov 19:47:27 19:51:33 47° 294° (WNW) 19:55:38 437.425
UKube-1 21 Nov 19:50:06 19:53:13 19° 54° (NE) 19:56:19 .
CUBEBUG 2 21 Nov 19:50:08 19:52:04 13° 51° (NE) 19:53:59 437.445
CUBESAT XI-V 21 Nov 19:53:43 19:58:29 89° 106° (ESE) 20:03:09 437.345
UWE-3 21 Nov 20:00:12 20:02:22 14° 52° (NE) 20:04:31 435.000/436.395/437.385
Oscar 11 21 Nov 20:04:38 20:08:05 24° 59° (ENE) 20:11:33 145.826/435.025
MOZHAYETS 4 21 Nov 20:04:51 20:07:17 14° 311° (NW) 20:09:42
STRAND 1 21 Nov 20:06:39 20:11:49 85° 288° (WNW) 20:16:56 437.568
SHINDAISAT 21 Nov 20:07:07 20:08:40 20° 233° (SW) 20:10:12 437.305
DOVE 4 21 Nov 20:07:09 20:11:17 34° 64° (ENE) 20:15:13 437.250
HO-68 21 Nov 20:13:10 20:20:22 84° 68° (ENE) 20:27:37 435.675
DX 1 21 Nov 20:19:49 20:23:42 32° 61° (ENE) 20:27:36 434.975-435.025
SEEDS 21 Nov 20:22:19 20:26:28 64° 71° (ENE) 20:30:39 437.485
GOMX 1 21 Nov 20:26:32 20:31:16 60° 70° (ENE) 20:35:41 467.674
VELOX 1 21 Nov 20:29:41 20:32:39 18° 53° (NE) 20:35:38 145.980
BRITE-PL 21 Nov 20:30:35 20:35:38 82° 73° (ENE) 20:40:18 437.365/2234.400
AIST 1 21 Nov 20:39:09 20:43:26 52° 95° (E) 20:47:45
CANX-2 21 Nov 20:43:35 20:47:48 71° 257° (WSW) 20:52:03 2200.000
ZACube-1 21 Nov 20:44:24 20:47:53 26° 60° (ENE) 20:51:21 437.345
AAUSAT CUBESAT 2 21 Nov 20:48:52 20:53:02 86° 73° (ENE) 20:57:15 437.432
AISAT 21 Nov 20:52:01 20:55:41 25° 58° (ENE) 20:59:21 437.250
COMPASS 1 21 Nov 21:00:52 21:05:02 68° 257° (WSW) 21:09:14 437.405
GONETS M04 21 Nov 21:02:13 21:10:51 60° 268° (W) 21:19:26
HUMSAT D 21 Nov 21:03:28 21:06:52 25° 60° (ENE) 21:10:16 437.325/437.525
PCSat 21 Nov 21:08:35 21:13:24 33° 116° (ESE) 21:18:14 145.827
CINEMA 3 21 Nov 21:17:57 21:22:22 86° 74° (ENE) 21:26:39 145.822/145.860
DELFI C3 21 Nov 21:18:03 21:22:08 81° 73° (ENE) 21:26:16 145.870
CUTE 1.7 & AOD 2 21 Nov 21:19:22 21:23:17 37° 264° (W) 21:27:15 437.475
FUNcube-1 21 Nov 21:20:05 21:24:09 49° 68° (ENE) 21:28:11 145.935
CUBEBUG 1 21 Nov 21:23:15 21:26:32 21° 56° (NE) 21:29:50 437.445
50 SAT 21 Nov 21:23:37 21:27:12 31° 63° (ENE) 21:30:47 437.505
CUBEBUG 2 21 Nov 21:23:50 21:28:05 68° 71° (ENE) 21:32:16 437.445
UKube-1 21 Nov 21:24:32 21:28:55 80° 254° (WSW) 21:33:19 .
PRISM 21 Nov 21:25:41 21:26:10 10° 314° (NW) 21:26:39 437.425
CUBESAT XI-V 21 Nov 21:32:03 21:35:21 19° 306° (NW) 21:38:38 437.345
UWE-3 21 Nov 21:34:02 21:38:17 74° 72° (ENE) 21:42:28 435.000/436.395/437.385
TISAT 1 21 Nov 21:38:24 21:39:09 10° 47° (NE) 21:39:54 437.305
Oscar 11 21 Nov 21:39:44 21:43:58 58° 259° (WSW) 21:48:16 145.826/435.025
RS-15 21 Nov 21:39:56 21:50:36 53° 353° (N) 22:01:34 29.354- 29.394
DOVE 4 21 Nov 21:44:41 21:49:04 40° 262° (W) 21:53:13 437.250
ESTCUBE 1 21 Nov 21:46:28 21:50:28 31° 61° (ENE) 21:54:30 437.505/2401.250
STRAND 1 21 Nov 21:46:42 21:50:22 20° 309° (NW) 21:54:02 437.568
DX 1 21 Nov 21:55:41 21:59:52 43° 261° (W) 22:04:05 434.975-435.025
SEEDS 21 Nov 21:59:41 22:02:45 19° 271° (W) 22:05:49 437.485
HO-68 21 Nov 22:02:59 22:08:56 27° 270° (W) 22:14:56 435.675
VELOX 1 21 Nov 22:04:11 22:08:41 88° 73° (ENE) 22:13:12 145.980
AUBIESAT-1 21 Nov 22:04:25 22:06:00 12° 36° (NE) 22:07:37 437.475
GOMX 1 21 Nov 22:05:54 22:09:44 24° 268° (W) 22:13:24 467.674
M-CUBED/EXP-1 PRIME 21 Nov 22:05:55 22:07:47 13° 37° (NE) 22:09:41 437.505
BRITE-PL 21 Nov 22:11:15 22:14:41 18° 271° (W) 22:17:59 437.365/2234.400
POPSAT HIP 1 21 Nov 22:13:50 22:14:35 10° 83° (E) 22:15:20 437.405
BEESAT 3 21 Nov 22:14:15 22:18:04 36° 125° (SE) 22:21:56 437.485
AIST 1 21 Nov 22:17:44 22:21:24 25° 296° (WNW) 22:25:07
ZACube-1 21 Nov 22:19:59 22:24:06 50° 260° (W) 22:28:11 437.345
CANX-2 21 Nov 22:23:30 22:24:35 11° 277° (W) 22:25:40 2200.000
BUGSAT 1 21 Nov 22:24:53 22:26:00 11° 84° (E) 22:27:07 437.445
BEESAT 2 21 Nov 22:25:40 22:29:35 41° 126° (SE) 22:33:34 435.950
AAUSAT CUBESAT 2 21 Nov 22:27:04 22:29:21 14° 274° (W) 22:31:40 437.432
AISAT 21 Nov 22:27:36 22:32:03 59° 258° (WSW) 22:36:31 437.250
TIGRISAT 21 Nov 22:28:57 22:32:11 20° 90° (E) 22:35:26 435.000
HUMSAT D 21 Nov 22:38:28 22:42:30 50° 260° (W) 22:46:33 437.325/437.525
AIST 2 21 Nov 22:39:30 22:43:19 33° 123° (ESE) 22:47:12 435.215
UNISAT 6 21 Nov 22:39:41 22:43:18 25° 93° (E) 22:46:58 437.425
COMPASS 1 21 Nov 22:41:11 22:41:38 10° 277° (W) 22:42:05 437.405
POLYITAN 1 21 Nov 22:42:36 22:45:41 19° 90° (E) 22:48:45 437.675
QB50P2 21 Nov 22:46:29 22:49:43 21° 91° (E) 22:52:55 145.880/145.840
PCSat 21 Nov 22:51:09 22:56:33 66° 317° (NW) 23:02:00 145.827
DUCHIFAT 1 21 Nov 22:55:29 22:58:58 24° 92° (E) 23:02:25 145.980
DELFI C3 21 Nov 22:55:40 22:58:02 15° 273° (W) 23:00:25 145.870
FUNcube-1 21 Nov 22:57:18 23:00:46 25° 267° (W) 23:04:14 145.935
CINEMA 3 21 Nov 22:57:39 23:00:12 15° 273° (W) 23:02:42 145.822/145.860
CUBEBUG 1 21 Nov 22:58:02 23:02:30 75° 256° (WSW) 23:06:58 437.445
50 SAT 21 Nov 22:58:44 23:02:30 37° 263° (W) 23:06:17 437.505
CUSAT 1 21 Nov 22:59:17 23:01:09 13° 61° (ENE) 23:03:14 437.405
GONETS M04 21 Nov 23:00:41 23:05:46 17° 293° (WNW) 23:10:51
CUBEBUG 2 21 Nov 23:02:16 23:05:16 18° 271° (W) 23:08:14 437.445
UKube-1 21 Nov 23:03:49 23:05:51 13° 274° (W) 23:07:52 .
DANDE 21 Nov 23:04:58 23:06:23 12° 61° (ENE) 23:07:55 436.750
SPROUT 21 Nov 23:05:18 23:09:20 40° 65° (ENE) 23:13:23 437.525
ANTELSAT 21 Nov 23:07:34 23:11:44 42° 98° (E) 23:15:57 437.575/2403.000
TISAT 1 21 Nov 23:09:57 23:14:05 49° 67° (ENE) 23:18:13 437.305
UWE-3 21 Nov 23:12:35 23:15:21 17° 272° (W) 23:18:06 435.000/436.395/437.385
NANOSAT C BR1 21 Nov 23:13:52 23:17:46 34° 96° (E) 23:21:38 145.865
ESTCUBE 1 21 Nov 23:22:51 23:27:14 46° 261° (W) 23:31:40 437.505/2401.250
QB50P1 21 Nov 23:23:02 23:27:05 41° 98° (E) 23:31:05 145.935-145.965
ITUPSAT 1 21 Nov 23:25:22 23:28:50 20° 53° (NE) 23:32:18 437.325
AUBIESAT-1 21 Nov 23:36:00 23:39:56 43° 58° (ENE) 23:44:12 437.475
SWISSCUBE 21 Nov 23:37:36 23:41:30 25° 56° (ENE) 23:45:25 437.505
M-CUBED/EXP-1 PRIME 21 Nov 23:37:52 23:41:49 47° 59° (ENE) 23:46:10 437.505
VELOX 1 21 Nov 23:43:13 23:45:56 16° 273° (W) 23:48:39 145.980
POPSAT HIP 1 21 Nov 23:47:08 23:51:22 68° 103° (ESE) 23:55:34 437.405
BEESAT 3 21 Nov 23:52:10 23:56:14 51° 326° (NW) 00:00:22 437.485
RS-15 21 Nov 23:54:02 00:05:00 64° 26° (NNE) 00:16:22 29.354- 29.394
BUGSAT 1 21 Nov 23:58:09 00:02:20 74° 104° (ESE) 00:06:25 437.445
BEESAT 2 22 Nov 00:03:51 00:07:55 47° 328° (NNW) 00:12:01 435.950
TIGRISAT 22 Nov 00:05:04 00:09:22 66° 290° (WNW) 00:13:45 435.000
BEESAT 22 Nov 00:09:00 00:13:26 38° 62° (ENE) 00:17:53 436.000
KKS-1 22 Nov 00:15:18 00:17:40 14° 50° (NE) 00:20:03 437.445
UNISAT 6 22 Nov 00:16:09 00:20:24 52° 292° (WNW) 00:24:42 437.425
AIST 2 22 Nov 00:17:35 00:21:49 57° 324° (NW) 00:26:06 435.215
POLYITAN 1 22 Nov 00:17:52 00:22:05 65° 290° (WNW) 00:26:16 437.675
QB50P2 22 Nov 00:21:50 00:26:02 60° 290° (WNW) 00:30:12 145.880/145.840
DUCHIFAT 1 22 Nov 00:31:01 00:35:08 50° 292° (WNW) 00:39:12 145.980
PCSat 22 Nov 00:36:13 00:40:55 29° 342° (NNW) 00:45:37 145.827
CUBEBUG 1 22 Nov 00:37:46 00:39:41 13° 276° (W) 00:41:35 437.445
CUSAT 1 22 Nov 00:40:56 00:44:35 88° 259° (WSW) 00:49:29 437.405
SPROUT 22 Nov 00:41:38 00:45:32 32° 265° (W) 00:49:27 437.525
ANTELSAT 22 Nov 00:44:37 00:48:30 32° 298° (WNW) 00:52:25 437.575/2403.000
TISAT 1 22 Nov 00:46:34 00:50:10 26° 267° (W) 00:53:47 437.305
DANDE 22 Nov 00:46:41 00:50:11 89° 78° (ENE) 00:54:52 436.750
NANOSAT C BR1 22 Nov 00:49:49 00:53:42 36° 296° (WNW) 00:57:33 145.865
MaSat-1 22 Nov 00:51:12 00:53:28 41° 48° (NE) 00:55:42 437.345
QB50P1 22 Nov 00:59:11 01:02:54 30° 298° (WNW) 01:06:36 145.935-145.965
ITUPSAT 1 22 Nov 01:01:20 01:06:10 89° 253° (WSW) 01:11:02 437.325
AUBIESAT-1 22 Nov 01:11:24 01:15:05 32° 260° (W) 01:19:05 437.475
M-CUBED/EXP-1 PRIME 22 Nov 01:13:33 01:17:07 29° 261° (W) 01:20:59 437.505
SWISSCUBE 22 Nov 01:14:13 01:19:01 67° 257° (WSW) 01:23:51 437.505
STARS 22 Nov 01:18:50 01:22:40 30° 61° (ENE) 01:26:30 437.465
POPSAT HIP 1 22 Nov 01:23:45 01:26:54 21° 303° (WNW) 01:30:03 437.405
BEESAT 3 22 Nov 01:31:51 01:35:18 24° 349° (N) 01:38:47 437.485
BUGSAT 1 22 Nov 01:34:28 01:37:24 19° 304° (NW) 01:40:18 437.445
Oscar 19 22 Nov 01:41:58 01:46:39 34° 95° (E) 01:51:18 437.125/150
TIGRISAT 22 Nov 01:43:21 01:45:25 13° 310° (NW) 01:47:30 435.000
BEESAT 2 22 Nov 01:43:39 01:47:05 24° 351° (N) 01:50:33 435.950
BEESAT 22 Nov 01:46:48 01:51:18 40° 263° (W) 01:55:51 436.000
KKS-1 22 Nov 01:49:09 01:53:35 68° 70° (ENE) 01:58:02 437.445
UNISAT 6 22 Nov 01:55:01 01:56:20 11° 312° (NW) 01:57:40 437.425
POLYITAN 1 22 Nov 01:55:24 01:57:18 13° 310° (NW) 01:59:12 437.675
AIST 2 22 Nov 01:57:36 02:01:14 26° 347° (NNW) 02:04:54 435.215
QB50P2 22 Nov 01:59:30 02:01:10 12° 311° (NW) 02:02:50 145.880/145.840
RS-15 22 Nov 02:06:50 02:17:47 69° 234° (SW) 02:29:13 29.354- 29.394
DUCHIFAT 1 22 Nov 02:09:15 02:10:07 11° 313° (NW) 02:10:59 145.980
PCSat 22 Nov 02:21:31 02:25:56 25° 7° (N) 02:30:22 145.827
ISS 22 Nov 02:24:23 02:26:43 18° 150° (SSE) 02:29:03 145.825
ITAMSAT 1 22 Nov 02:24:58 02:29:39 33° 95° (E) 02:34:18 435.822/435.867
MOZHAYETS 4 22 Nov 02:25:27 02:26:40 11° 45° (NE) 02:27:54
CUSAT 1 22 Nov 02:25:55 02:27:30 12° 270° (W) 02:29:13 437.405
YUBILEINY 22 Nov 02:27:01 02:34:41 35° 81° (E) 02:42:19 435.215
MaSat-1 22 Nov 02:27:04 02:27:51 11° 248° (WSW) 02:28:38 437.345
Gurwin Techsat 1B 22 Nov 02:30:57 02:35:17 25° 90° (E) 02:39:36 435.225
DANDE 22 Nov 02:32:07 02:33:28 12° 270° (W) 02:34:54 436.750
ITUPSAT 1 22 Nov 02:41:44 02:44:47 17° 273° (W) 02:47:51 437.325
HORYU 2 22 Nov 02:48:59 02:51:39 15° 87° (E) 02:54:19 437.375
STARS 22 Nov 02:54:46 02:59:01 47° 260° (W) 03:03:18 437.465
SWISSCUBE 22 Nov 02:55:58 02:57:51 12° 277° (W) 02:59:44 437.505
BEESAT 3 22 Nov 03:11:12 03:14:43 25° 13° (NNE) 03:18:13 437.485
Oscar 19 22 Nov 03:21:14 03:26:12 49° 295° (WNW) 03:31:10 437.125/150
BEESAT 2 22 Nov 03:22:59 03:26:33 26° 14° (NNE) 03:30:08 435.950
KKS-1 22 Nov 03:27:24 03:30:42 20° 270° (W) 03:34:01 437.445
AIST 2 22 Nov 03:37:27 03:41:04 25° 11° (N) 03:44:40 435.215
PRISM 22 Nov 03:38:04 03:39:17 11° 47° (NE) 03:40:29 437.425
MOZHAYETS 4 22 Nov 03:58:29 04:02:53 47° 66° (ENE) 04:07:20
ISS 22 Nov 03:59:43 04:02:50 39° 170° (S) 04:05:57 145.825
ITAMSAT 1 22 Nov 04:04:21 04:09:23 51° 295° (WNW) 04:14:23 435.822/435.867
PCSat 22 Nov 04:05:30 04:10:41 42° 32° (NNE) 04:15:51 145.827
Gurwin Techsat 1B 22 Nov 04:10:27 04:15:46 70° 291° (WNW) 04:21:03 435.225
STRAND 1 22 Nov 04:15:04 04:17:46 15° 45° (NE) 04:20:29 437.568
RS-15 22 Nov 04:20:06 04:28:08 24° 260° (W) 04:36:26 29.354- 29.394
YUBILEINY 22 Nov 04:22:04 04:30:53 74° 285° (WNW) 04:39:42 435.215
HORYU 2 22 Nov 04:24:29 04:29:00 89° 287° (WNW) 04:33:30 437.375
AO-7 22 Nov 04:25:36 04:33:24 41° 97° (E) 04:41:09 29.400- 29.500
JAS-2 22 Nov 04:31:45 04:37:14 22° 80° (E) 04:42:20 435.910
BEESAT 3 22 Nov 04:49:35 04:53:44 55° 35° (NE) 04:57:52 437.485
BEESAT 2 22 Nov 05:01:23 05:05:36 60° 37° (NE) 05:09:46 435.950
Oscar 19 22 Nov 05:02:10 05:04:29 13° 316° (NW) 05:06:48 437.125/150
PRISM 22 Nov 05:09:51 05:13:57 52° 68° (ENE) 05:18:06 437.425
AIST 2 22 Nov 05:16:18 05:20:33 51° 34° (NE) 05:24:46 435.215
CUBESAT XI-V 22 Nov 05:27:35 05:31:51 35° 62° (ENE) 05:36:08 437.345
SO-50 22 Nov 05:32:31 05:36:39 34° 123° (ESE) 05:40:55 436.795
ISS 22 Nov 05:36:02 05:39:10 40° 190° (S) 05:42:18 145.825
MOZHAYETS 4 22 Nov 05:36:16 05:40:19 30° 267° (W) 05:44:25
ITAMSAT 1 22 Nov 05:45:20 05:47:50 14° 317° (NW) 05:50:20 435.822/435.867
PCSat 22 Nov 05:49:01 05:54:24 62° 235° (SW) 05:59:44 145.827
STRAND 1 22 Nov 05:50:58 05:55:59 56° 66° (ENE) 06:01:02 437.568
Gurwin Techsat 1B 22 Nov 05:51:28 05:54:55 18° 312° (NW) 05:58:22 435.225
HORYU 2 22 Nov 06:02:08 06:05:07 18° 307° (NW) 06:08:07 437.375
Cubesat XI-IV 22 Nov 06:09:38 06:14:02 25° 91° (E) 06:18:24 437.490
JAS-2 22 Nov 06:15:59 06:23:38 78° 104° (ESE) 06:30:27 435.910
AO-7 22 Nov 06:18:27 06:26:43 68° 299° (WNW) 06:34:59 29.400- 29.500
YUBILEINY 22 Nov 06:22:27 06:29:27 26° 312° (NW) 06:36:29 435.215
BEESAT 3 22 Nov 06:28:03 06:31:52 34° 236° (WSW) 06:35:39 437.485
AIST 1 22 Nov 06:39:02 06:43:00 31° 67° (ENE) 06:46:55
BEESAT 2 22 Nov 06:40:00 06:43:42 30° 238° (WSW) 06:47:22 435.950
PRISM 22 Nov 06:46:23 06:49:48 24° 267° (W) 06:53:16 437.425
CUTE-I 22 Nov 06:51:56 06:57:08 49° 100° (E) 07:02:16 437.470
AIST 2 22 Nov 06:55:07 06:59:09 38° 235° (SW) 07:03:08 435.215
O/OREOS (USA 219) 22 Nov 07:01:26 07:05:14 28° 107° (ESE) 07:09:03 437.305
CUBESAT XI-V 22 Nov 07:04:43 07:09:14 43° 262° (W) 07:13:47 437.345
SO-50 22 Nov 07:12:27 07:17:02 61° 325° (NW) 07:21:46 436.795
ISS 22 Nov 07:12:53 07:15:18 19° 209° (SSW) 07:17:42 145.825
STRAND 1 22 Nov 07:30:59 07:35:29 30° 267° (W) 07:40:01 437.568
PCSat 22 Nov 07:34:06 07:36:48 14° 256° (WSW) 07:39:31 145.827
HO-68 22 Nov 07:36:31 07:37:41 10° 75° (ENE) 07:38:50 435.675
Cubesat XI-IV 22 Nov 07:49:18 07:54:38 68° 291° (WNW) 07:59:54 437.490
JAS-2 22 Nov 08:01:23 08:08:04 35° 308° (NW) 08:14:12 435.910
AO-7 22 Nov 08:11:41 08:18:17 27° 324° (NW) 08:24:53 29.400- 29.500
UNISAT 6 22 Nov 08:13:12 08:14:15 11° 47° (NE) 08:15:18 437.425
GONETS M04 22 Nov 08:16:10 08:24:00 38° 82° (E) 08:31:53
AIST 1 22 Nov 08:16:39 08:20:48 40° 267° (W) 08:24:53
CANX-2 22 Nov 08:23:17 08:25:28 14° 85° (E) 08:27:38 2200.000
YUBILEINY 22 Nov 08:28:15 08:30:35 11° 344° (NNW) 08:32:56 435.215
BRITE-PL 22 Nov 08:29:41 08:31:40 13° 85° (E) 08:33:37 437.365/2234.400
CUTE-I 22 Nov 08:32:16 08:37:08 37° 300° (WNW) 08:41:57 437.470
COMPASS 1 22 Nov 08:39:05 08:41:13 13° 85° (E) 08:43:20 437.405
ANTELSAT 22 Nov 08:39:27 08:42:09 17° 53° (NE) 08:44:52 437.575/2403.000
O/OREOS (USA 219) 22 Nov 08:40:01 08:44:25 54° 308° (NW) 08:48:50 437.305
NANOSAT C BR1 22 Nov 08:40:45 08:42:49 14° 51° (NE) 08:44:54 145.865
QB50P1 22 Nov 08:49:30 08:52:01 16° 53° (NE) 08:54:32 145.935-145.965
SO-50 22 Nov 08:54:17 08:58:25 29° 348° (NNW) 09:02:38 436.795
CUTE 1.7 & AOD 2 22 Nov 08:57:35 09:01:07 25° 92° (E) 09:04:39 437.475
UKube-1 22 Nov 09:07:34 09:08:45 11° 84° (E) 09:09:56 .
CINEMA 3 22 Nov 09:07:35 09:08:57 11° 84° (E) 09:10:19 145.822/145.860
POPSAT HIP 1 22 Nov 09:12:42 09:16:01 22° 58° (ENE) 09:19:20 437.405
HO-68 22 Nov 09:20:31 09:27:25 46° 98° (E) 09:34:14 435.675
Oscar 11 22 Nov 09:20:44 09:23:34 17° 88° (E) 09:26:24 145.826/435.025
BUGSAT 1 22 Nov 09:21:10 09:24:31 23° 58° (ENE) 09:27:51 437.445
Cubesat XI-IV 22 Nov 09:30:26 09:33:53 18° 313° (NW) 09:37:19 437.490
TIGRISAT 22 Nov 09:34:54 09:38:55 41° 65° (ENE) 09:42:56 435.000
SEEDS 22 Nov 09:35:42 09:39:49 46° 99° (E) 09:43:56 437.485
DOVE 4 22 Nov 09:36:25 09:40:06 29° 94° (E) 09:43:46 437.250
DX 1 22 Nov 09:37:18 09:40:35 20° 91° (E) 09:43:51 434.975-435.025
POLYITAN 1 22 Nov 09:42:51 09:46:48 38° 64° (ENE) 09:50:44 437.675
UNISAT 6 22 Nov 09:46:01 09:50:10 52° 68° (ENE) 09:54:20 437.425
QB50P2 22 Nov 09:46:32 09:50:32 40° 65° (ENE) 09:54:32 145.880/145.840
JAS-2 22 Nov 09:47:22 09:50:58 14° 332° (NNW) 09:54:28 435.910
VELOX 1 22 Nov 09:50:27 09:51:25 11° 83° (E) 09:52:23 145.980
DUCHIFAT 1 22 Nov 09:55:14 09:59:19 47° 67° (ENE) 10:03:25 145.980
CANX-2 22 Nov 09:57:48 10:02:06 86° 105° (ESE) 10:06:24 2200.000
GOMX 1 22 Nov 09:59:08 10:03:17 59° 101° (ESE) 10:07:23 467.674
AAUSAT CUBESAT 2 22 Nov 10:01:00 10:05:12 61° 102° (ESE) 10:09:24 437.432
ZACube-1 22 Nov 10:02:02 10:05:03 19° 90° (E) 10:08:05 437.345
AO-7 22 Nov 10:04:05 10:08:27 16° 350° (N) 10:12:50 29.400- 29.500
BRITE-PL 22 Nov 10:06:42 10:10:58 90° 104° (ESE) 10:15:07 437.365/2234.400
GONETS M04 22 Nov 10:11:33 10:20:20 70° 287° (WNW) 10:29:14
AISAT 22 Nov 10:12:31 10:15:27 17° 88° (E) 10:18:22 437.250
COMPASS 1 22 Nov 10:13:22 10:17:38 87° 105° (ESE) 10:21:54 437.405
NANOSAT C BR1 22 Nov 10:13:46 10:18:00 68° 71° (ENE) 10:22:15 145.865
ANTELSAT 22 Nov 10:14:08 10:18:25 89° 73° (ENE) 10:22:44 437.575/2403.000
CUTE-I 22 Nov 10:14:45 10:15:50 11° 322° (NW) 10:16:56 437.470
HUMSAT D 22 Nov 10:16:38 10:19:23 17° 89° (E) 10:22:08 437.325/437.525
O/OREOS (USA 219) 22 Nov 10:21:59 10:24:51 16° 331° (NNW) 10:27:42 437.305
QB50P1 22 Nov 10:23:02 10:27:19 82° 73° (ENE) 10:31:36 145.935-145.965
DELFI C3 22 Nov 10:27:07 10:31:11 52° 100° (E) 10:35:15 145.870
YUBILEINY 22 Nov 10:29:52 10:32:57 12° 20° (NNE) 10:36:02 435.215
50 SAT 22 Nov 10:32:52 10:35:52 20° 91° (E) 10:38:53 437.505
CUTE 1.7 & AOD 2 22 Nov 10:33:11 10:37:20 51° 292° (WNW) 10:41:29 437.475
SO-50 22 Nov 10:35:58 10:40:10 30° 13° (NNE) 10:44:27 436.795
FUNcube-1 22 Nov 10:37:44 10:41:39 37° 97° (E) 10:45:35 145.935
UKube-1 22 Nov 10:41:25 10:45:48 69° 104° (ESE) 10:50:07 .
CUBEBUG 1 22 Nov 10:41:32 10:43:41 13° 85° (E) 10:45:48 437.445
CINEMA 3 22 Nov 10:42:46 10:46:57 77° 104° (ESE) 10:51:11 145.822/145.860
CUBEBUG 2 22 Nov 10:44:26 10:48:33 55° 101° (E) 10:52:43 437.445
POPSAT HIP 1 22 Nov 10:47:23 10:51:37 62° 258° (WSW) 10:55:52 437.405
UWE-3 22 Nov 10:53:19 10:57:28 59° 101° (ESE) 11:01:39 435.000/436.395/437.385
BUGSAT 1 22 Nov 10:55:30 10:59:44 61° 258° (WSW) 11:03:57 437.445
Oscar 11 22 Nov 10:55:56 11:00:18 78° 288° (WNW) 11:04:39 145.826/435.025
HO-68 22 Nov 11:08:22 11:15:20 54° 300° (WNW) 11:22:15 435.675
ESTCUBE 1 22 Nov 11:08:43 11:12:26 24° 91° (E) 11:16:06 437.505/2401.250
SEEDS 22 Nov 11:11:52 11:15:31 28° 298° (WNW) 11:19:11 437.485
TIGRISAT 22 Nov 11:12:04 11:15:50 30° 265° (W) 11:19:36 435.000
DX 1 22 Nov 11:12:55 11:17:16 64° 291° (WNW) 11:21:34 434.975-435.025
DOVE 4 22 Nov 11:14:09 11:18:02 39° 294° (WNW) 11:21:55 437.250
POLYITAN 1 22 Nov 11:18:57 11:22:50 33° 264° (W) 11:26:43 437.675
